Lid_Strength_Index
4 4 3 3 2 2 1 2 2 2 2 1 1 1 2 1 1 -0 -0 -1 -1 -1 -0 -0 -0 -0 0 0 0 1 1 1 1 3 5 5 5 6 5 5 5 5 5
5 5 5 4 4 3 3 2 1 1 2 2 0 1 1 1 0 0 -0 -0 -0 -0 -0 -0 0 0 0 0 1 1 1 1 2 4 5 7 7 7 6 7 6 6 6
6 5 4 4 4 3 3 3 3 2 1 0 0 0 0 1 1 1 1 0 0 -0 -0 -0 0 0 0 1 1 1 1 3 3 4 4 6 7 8 7 8 8 7 7
5 4 4 3 3 3 2 2 3 3 3 2 2 1 2 2 1 1 0 0 -0 0 -0 -0 -0 0 0 1 1 0 1 2 4 5 4 3 6 7 10 9 8 8 8
4 4 4 3 3 2 2 2 2 3 2 3 3 2 2 1 1 1 1 1 0 -0 -0 -0 0 0 0 0 0 1 1 2 2 5 5 6 7 7 6 10 11 9 9
4 4 3 3 3 2 2 2 2 2 2 2 3 3 2 2 1 1 1 1 1 0 0 0 0 0 0 1 1 0 1 2 2 4 4 6 7 8 9 8 9 11 10
5 4 4 4 3 3 3 3 3 3 3 2 2 3 2 2 1 1 1 1 1 1 1 0 0 0 0 0 0 1 2 2 2 2 4 4 5 5 7 7 11 11 13
4 4 4 4 4 4 4 4 4 4 3 3 2 2 2 2 2 1 1 1 1 1 0 0 0 0 0 0 1 1 1 2 2 2 2 4 5 7 9 9 11 14 15
4 4 4 4 4 4 5 4 4 4 3 3 2 2 2 1 1 1 1 1 1 0 0 0 0 0 0 0 1 2 2 2 2 2 2 4 6 9 10 10 10 10 14
4 5 5 5 4 4 4 4 4 4 4 3 3 3 2 2 2 2 1 1 0 0 0 0 0 0 0 0 2 2 3 4 4 4 4 10 11 12 12 12 13 12 13
5 5 5 5 4 4 4 4 5 5 5 5 4 3 3 3 2 2 1 1 1 1 0 1 1 1 1 1 2 3 3 4 6 8 10 12 12 12 13 13 13 13 12
5 6 6 5 5 5 5 5 6 6 6 6 5 5 4 3 4 4 3 3 2 2 1 1 1 1 1 2 3 5 5 7 8 9 11 13 13 13 13 13 13 14 13
6 6 6 6 6 6 6 7 7 7 7 7 6 6 6 6 6 6 6 6 6 5 4 5 6 5 5 6 6 8 9 10 11 11 12 12 13 14 13 13 14 14 13
7 7 7 6 7 7 7 7 7 7 7 7 7 8 8 8 8 8 8 9 9 9 9 8 9 9 9 9 9 10 10 10 11 12 12 13 13 13 13 14 14 13 14
8 8 8 8 7 8 8 7 7 8 8 8 8 9 9 9 9 10 10 10 10 9 9 9 9 9 9 9 10 10 10 11 12 12 12 12 11 11 13 13 14 14 15
8 9 9 9 9 8 8 8 8 8 8 9 9 9 9 10 10 10 10 9 10 9 9 9 9 9 8 8 8 10 11 12 13 14 14 13 12 11 11 11 12 12 14
9 9 9 9 9 9 8 9 9 9 9 9 9 10 10 11 11 11 11 11 12 12 12 12 10 10 9 8 9 10 12 13 14 14 14 14 13 13 14 13 13 13 13
9 9 9 9 9 9 9 9 9 9 10 11 11 11 11 12 12 12 12 12 12 13 13 13 12 13 11 10 11 12 14 14 14 14 14 14 14 14 14 14 14 14 14
8 9 9 10 10 9 9 10 10 11 11 12 12 12 12 12 12 13 13 14 14 14 14 14 14 14 13 12 12 13 14 14 14 14 14 14 15 15 14 14 13 13 12
9 9 9 9 10 10 9 10 11 11 12 12 12 12 12 13 13 13 13 13 13 13 13 14 13 12 13 13 13 13 14 15 15 15 15 14 13 12 11 12 13 14 14
9 9 9 9 10 9 10 11 12 13 12 12 12 12 12 13 12 12 12 13 13 13 13 13 12 11 11 12 12 12 13 14 14 14 14 13 12 12 12 12 13 14 13
9 9 9 10 9 10 11 12 13 12 12 12 12 12 12 11 11 12 12 12 13 14 14 14 14 13 12 12 12 12 12 12 13 14 14 13 13 13 14 14 13 13 12
9 9 9 11 11 11 11 12 12 12 12 12 12 12 11 12 13 13 13 14 13 14 14 15 15 15 14 13 13 13 12 12 14 13 14 14 14 14 14 14 13 13 14
9 9 10 11 12 11 11 11 11 11 12 11 12 13 14 14 14 14 13 13 14 14 15 15 15 15 14 14 13 13 13 13 13 14 14 15 15 15 15 15 14 14 14
9 9 9 10 11 10 11 11 11 11 11 12 14 14 14 14 14 14 14 15 15 14 15 15 15 15 15 14 13 14 14 14 14 14 15 16 16 16 16 15 15 14 14
10 10 9 10 10 10 11 11 11 11 13 14 14 14 14 14 13 14 14 13 13 13 13 14 14 14 14 14 14 14 14 14 14 16 17 17 17 17 16 16 15 15 14